Theta_e
338 337 343 349 351 352 352 353 353 352 351 352 352 352 352 350 349 349 348 347 347 347 347 347 347 348 347 348 348 348 348 348 348 348 348 348 348 348 349 349 349 349 350 349 349 349 349 348 348 347 346 345 345 345 345 346 346 346 347 347 348 348 348 349 349 350 350 350 350 350 350 349 351 351 352 353 353 353 352 351 350 349 349 351 353
339 339 344 347 350 351 353 353 353 352 352 352 352 351 351 350 349 348 348 348 347 347 347 347 347 348 348 347 348 348 348 348 348 349 349 348 348 349 348 349 349 348 348 348 348 347 347 346 347 347 346 345 343 342 342 342 343 344 345 345 346 347 347 347 347 348 349 349 349 350 350 349 350 350 351 352 352 352 351 351 350 347 346 352 353
340 340 344 346 349 351 352 352 353 353 351 352 352 351 350 349 349 348 348 348 347 347 348 348 348 348 348 348 348 349 348 348 348 348 349 348 348 348 347 348 347 348 348 347 347 347 346 345 344 344 343 342 341 340 340 339 340 342 343 344 344 345 346 346 346 346 347 348 348 347 346 348 348 349 350 351 351 351 350 350 350 349 347 351 351
338 340 344 346 347 349 352 353 353 352 352 352 351 351 350 349 348 348 347 347 347 347 347 348 348 348 348 348 348 348 348 348 348 347 348 348 348 347 346 346 347 346 346 346 345 345 343 342 341 341 340 339 339 339 338 337 337 338 340 342 343 343 344 344 344 344 344 346 346 343 343 340 344 348 348 349 350 349 349 349 350 350 350 350 351
338 340 343 346 346 347 351 352 353 352 352 351 351 351 350 349 349 348 347 348 348 348 347 348 348 348 349 348 348 348 347 347 347 347 347 347 347 346 345 345 345 345 345 345 344 343 342 341 339 338 337 336 336 335 335 335 335 336 336 338 340 341 341 341 342 342 343 343 342 340 338 340 341 347 347 348 347 347 347 347 348 348 349 349 350
338 340 343 345 345 346 349 351 352 352 352 351 351 351 349 349 349 348 348 348 348 347 347 348 348 348 348 348 348 348 348 347 347 347 346 346 345 345 345 344 344 343 344 344 342 341 340 340 339 338 336 334 333 332 333 334 334 334 335 335 336 338 339 339 340 340 340 340 337 335 337 339 341 344 348 348 348 347 347 346 347 347 347 349 350
339 340 343 344 345 345 346 351 352 352 351 351 351 350 349 349 349 348 348 348 348 347 347 348 348 348 348 349 348 347 347 346 346 344 344 343 342 342 342 341 342 342 341 341 339 338 338 337 337 336 334 333 332 331 331 331 332 332 333 333 334 335 337 337 338 338 340 336 328 332 340 341 341 341 347 348 348 347 347 347 347 346 348 349 349
339 341 343 344 344 344 346 351 352 352 352 351 351 350 349 349 348 349 348 348 347 347 348 347 348 348 348 348 348 347 347 345 344 343 342 341 340 339 339 339 339 339 339 337 337 337 337 336 334 333 332 332 331 331 330 330 330 330 330 330 332 333 334 335 336 337 337 327 330 341 341 340 340 342 347 346 346 347 347 347 347 348 347 347 346
339 341 342 343 343 343 346 349 352 352 352 351 351 350 349 348 349 349 348 348 347 347 347 347 348 348 348 348 348 347 346 345 344 342 341 340 339 338 338 338 337 337 337 337 336 335 334 334 334 332 331 330 329 329 329 329 328 328 328 329 330 331 333 334 335 336 329 326 336 339 340 340 339 339 345 346 346 346 344 344 344 346 346 344 344
339 340 342 342 343 342 344 349 352 352 351 351 351 350 349 348 349 348 347 347 347 347 347 347 348 348 349 348 347 348 346 344 343 341 340 339 338 338 337 337 335 334 335 334 334 333 334 334 333 332 330 329 328 327 327 327 327 326 326 328 329 331 332 333 335 331 327 329 332 337 338 341 338 339 343 345 344 344 342 342 342 341 343 343 344
339 339 340 342 342 342 346 350 350 351 351 351 350 350 348 348 349 348 348 347 347 347 347 347 348 347 348 347 348 347 346 344 342 340 340 339 338 337 336 336 334 334 334 333 333 333 333 333 331 330 329 327 326 326 325 325 325 325 325 326 329 330 332 334 331 324 327 328 333 337 340 341 335 335 342 343 343 342 341 341 341 341 341 341 342
338 338 340 340 339 341 345 349 350 351 350 350 350 349 349 349 349 348 348 347 347 347 347 347 348 348 348 348 347 347 345 343 342 340 340 338 337 337 336 335 335 334 332 332 332 332 332 332 331 329 326 325 325 325 325 323 324 324 324 326 328 330 330 332 325 324 325 327 330 332 334 335 335 339 341 341 342 341 340 340 340 340 340 340 340
334 337 339 339 340 340 343 348 348 350 350 350 350 350 349 349 349 348 348 347 347 347 347 348 348 348 348 348 347 346 345 343 341 340 340 339 338 337 336 335 334 332 332 331 332 332 331 331 329 327 326 325 325 325 323 323 322 323 324 326 327 328 328 330 321 323 324 326 326 326 327 328 332 340 339 340 339 339 339 339 339 338 339 339 339
333 333 338 339 340 336 341 345 347 349 350 350 350 350 349 349 348 348 347 347 347 347 348 349 348 348 348 347 347 346 344 343 341 340 339 338 337 337 336 334 333 333 332 331 331 331 331 330 329 327 326 323 323 323 322 322 322 322 323 324 325 326 326 321 325 320 322 323 325 325 324 327 330 338 336 336 336 336 336 336 336 336 336 337 336
333 332 337 338 338 339 337 341 343 346 347 349 349 348 349 349 348 348 348 348 347 348 348 348 348 348 347 347 346 346 344 342 341 340 339 337 337 336 335 334 333 333 332 331 331 330 330 330 328 327 325 323 323 323 322 322 321 321 322 323 323 324 323 313 317 317 320 322 321 323 323 325 336 335 334 334 334 334 334 334 334 334 335 334 334
332 334 336 337 337 339 338 338 340 342 343 345 346 346 348 348 348 348 348 347 347 348 348 348 348 348 348 347 346 345 344 342 341 339 338 337 336 335 334 334 333 331 331 331 330 330 330 329 328 326 324 323 323 322 321 320 320 320 321 321 321 323 321 317 313 316 317 320 320 321 321 325 333 334 334 333 332 332 331 331 332 332 333 333 333
331 335 336 335 336 338 338 339 339 337 338 340 341 343 344 346 347 347 347 347 346 347 347 347 347 347 347 347 346 344 343 342 340 338 338 336 335 334 334 333 332 331 331 331 331 330 329 328 327 325 324 323 322 321 320 318 318 318 319 319 320 320 319 317 314 314 316 319 319 319 320 323 331 332 332 332 331 331 330 330 329 330 331 331 331
330 334 335 335 336 337 338 338 339 339 341 338 336 338 341 344 345 345 344 344 345 346 346 345 345 345 344 343 341 340 340 340 340 339 337 336 335 334 333 332 331 330 331 330 330 329 328 327 325 324 323 322 321 320 318 316 316 316 316 317 318 318 318 315 311 313 316 319 317 319 320 332 330 330 330 330 330 329 329 329 329 328 328 329 329
326 330 334 335 336 336 338 337 337 338 339 341 343 340 336 339 341 341 341 342 343 342 342 342 341 341 341 338 337 334 334 335 335 334 335 333 332 329 332 332 331 331 330 330 330 329 328 326 325 324 323 322 320 319 317 315 314 314 314 315 314 314 315 311 308 312 314 315 315 317 318 328 329 329 329 329 329 329 329 328 327 328 327 326 327
323 326 329 333 335 336 336 337 337 338 338 340 342 342 335 334 338 339 339 340 340 339 339 339 335 333 333 331 329 330 329 331 327 328 329 331 328 325 329 332 330 330 330 330 329 328 327 326 325 324 323 321 319 316 314 313 311 311 312 311 311 310 302 303 304 309 312 314 314 316 327 327 328 329 328 328 329 328 327 328 328 328 327 327 326
324 324 325 328 332 335 335 336 337 337 338 339 341 341 339 332 334 334 334 335 336 335 336 333 328 326 326 324 323 330 328 327 325 325 322 324 320 322 327 331 330 331 330 329 328 327 326 326 325 324 322 320 316 314 312 312 310 310 309 312 308 298 300 301 305 310 309 310 313 318 327 326 327 328 327 327 327 327 327 327 327 327 327 327 326
322 323 324 325 327 330 333 335 336 337 337 339 341 342 340 334 339 337 336 334 332 330 333 335 328 330 325 325 326 325 324 322 322 322 321 321 320 321 323 327 330 330 330 329 328 327 326 325 325 323 321 317 312 300 301 309 308 308 309 307 298 296 298 300 305 308 307 309 312 321 327 325 326 328 327 327 326 326 327 326 326 326 325 325 325
319 321 324 325 326 328 328 333 335 336 337 338 340 341 340 337 338 337 336 333 332 331 333 331 330 328 325 324 322 322 322 320 320 320 320 319 320 320 322 325 328 329 327 329 329 326 325 325 325 323 319 314 303 297 295 294 293 303 302 297 295 296 296 299 304 307 306 308 307 323 326 324 326 326 325 325 325 326 326 325 325 324 324 325 325
320 322 324 326 325 327 328 329 333 335 336 337 338 339 339 337 337 337 336 335 334 332 332 331 329 326 324 323 322 321 321 320 320 318 320 319 319 319 321 322 323 324 322 323 326 326 325 324 324 322 315 305 299 297 296 293 291 291 292 295 295 296 296 297 301 304 305 308 307 322 324 327 324 324 325 325 325 325 325 325 324 324 323 324 323
319 322 322 325 325 326 328 328 328 334 335 336 336 337 337 336 336 336 336 335 334 332 332 330 328 326 324 323 322 321 322 320 319 319 318 318 317 317 319 319 318 315 319 315 316 317 318 315 314 309 302 302 298 296 295 293 292 293 293 296 296 295 295 296 300 302 303 302 308 319 322 325 324 325 326 325 325 324 324 324 324 323 322 323 322
317 319 321 323 325 326 327 328 328 329 334 335 335 334 335 336 336 336 336 335 334 332 331 330 328 326 324 323 323 323 322 322 321 319 318 317 316 315 316 315 313 314 315 314 313 313 310 309 307 304 302 299 297 297 295 294 291 292 294 295 295 295 294 294 298 301 301 301 305 318 320 323 326 325 324 325 324 324 324 324 324 323 322 322 322
315 318 321 323 325 325 326 327 328 327 331 334 334 332 334 336 335 335 335 335 334 333 331 330 328 326 324 323 322 322 322 322 320 320 318 317 316 315 314 314 314 313 313 313 312 311 309 307 306 303 299 297 296 296 296 294 292 293 295 295 295 295 294 294 296 300 299 301 306 315 318 322 325 324 324 325 324 324 325 324 324 323 322 322 322
314 317 320 323 322 324 326 326 327 328 327 331 332 332 331 334 334 332 334 333 333 333 332 330 328 326 324 323 322 322 321 320 319 319 318 316 315 315 314 314 313 312 311 313 312 310 308 306 304 300 299 295 295 295 296 296 294 295 295 295 295 294 294 294 297 301 299 299 300 308 316 321 324 323 324 324 324 324 324 324 323 323 322 322 321
309 315 319 322 323 324 325 326 327 327 328 329 330 331 329 331 332 332 333 328 333 333 332 330 328 326 325 324 322 322 321 320 318 318 316 315 314 314 314 314 313 312 311 310 311 310 307 305 303 301 299 297 295 296 295 295 296 296 296 295 295 294 294 294 296 299 299 298 298 304 315 318 323 322 323 324 324 324 323 323 323 322 321 321 320
308 312 316 321 323 324 325 326 327 328 328 327 328 328 329 328 330 332 333 329 331 332 330 329 329 327 325 324 323 323 321 319 317 316 316 314 313 313 313 313 313 311 311 310 309 309 308 302 300 299 298 296 296 296 295 295 295 295 295 295 294 295 295 294 294 298 298 299 298 300 311 314 319 322 322 323 323 324 324 323 323 322 321 320 320
306 307 315 318 321 323 324 325 326 325 327 327 327 327 327 328 328 329 329 329 329 327 328 328 327 327 325 323 322 321 320 318 317 315 314 314 311 312 312 312 312 311 311 310 307 308 306 302 300 297 295 295 295 295 293 294 293 295 295 295 295 295 295 295 294 297 300 298 298 298 301 310 315 318 322 321 321 323 323 323 323 322 321 321 321
305 306 311 316 318 323 324 324 325 325 325 327 326 326 326 327 327 326 325 325 325 325 325 325 324 326 324 323 322 321 318 317 317 315 315 313 310 311 310 311 311 309 310 310 306 305 305 300 297 296 295 295 295 294 294 293 293 295 294 294 293 294 293 293 293 297 299 298 297 297 298 302 310 314 317 321 321 321 322 322 323 322 321 321 320
306 307 306 312 315 321 323 324 325 324 324 326 326 326 325 325 324 325 325 323 323 323 322 322 323 323 321 322 321 320 318 317 316 315 313 313 310 310 309 310 310 309 308 308 305 302 301 296 296 295 294 294 294 293 294 293 293 294 294 293 293 293 294 294 293 295 298 298 298 298 297 298 299 308 312 315 319 320 321 321 320 321 321 320 321
306 307 306 310 315 316 322 323 322 323 323 325 324 323 323 323 322 324 323 323 321 321 321 321 320 320 319 319 321 320 318 317 315 313 313 312 310 310 309 309 309 308 307 305 304 300 299 296 295 294 295 293 292 292 292 292 291 292 293 291 291 293 293 293 292 294 296 298 298 297 298 297 296 298 300 310 313 318 319 320 320 320 320 320 320
307 307 307 307 310 313 317 321 319 321 320 321 320 322 319 321 320 320 321 322 322 321 320 321 319 318 319 317 318 318 317 316 315 313 312 311 310 309 309 309 307 305 305 303 302 298 297 296 294 294 293 291 291 292 292 291 291 292 293 292 292 292 292 293 293 292 293 294 295 296 298 298 296 297 297 296 304 312 317 318 319 319 319 319 319
301 306 307 308 308 311 312 313 313 316 318 319 318 320 320 319 317 317 319 317 319 321 317 320 320 317 316 317 316 316 316 316 314 313 311 310 310 309 308 307 305 303 303 300 299 297 295 295 294 293 292 291 291 291 290 291 291 292 291 291 291 292 291 292 293 293 293 291 294 295 297 297 297 296 298 295 297 304 314 316 317 318 319 318 318
302 302 304 306 307 309 310 311 313 313 315 316 315 315 316 316 316 315 316 315 317 316 317 317 318 318 314 315 315 316 315 314 312 312 311 309 308 308 306 306 304 302 300 298 297 297 295 295 293 293 293 291 291 290 289 291 291 291 291 290 291 292 291 292 292 292 293 290 291 292 293 293 297 300 295 294 294 296 307 312 314 315 314 316 317
302 302 302 302 304 307 308 309 309 311 311 313 313 312 313 313 314 312 313 314 314 313 313 315 315 314 313 313 314 314 314 313 311 309 309 309 307 307 305 305 303 301 299 298 297 294 294 294 293 291 292 291 290 290 290 290 291 291 290 290 290 290 290 291 292 294 290 290 290 290 291 292 296 296 294 294 294 295 296 304 309 309 309 311 315
301 301 301 302 302 305 308 308 309 309 310 311 310 312 312 312 311 311 311 310 312 310 311 312 312 313 313 312 313 314 313 313 311 309 309 306 305 304 304 303 302 300 299 297 296 293 293 293 293 292 290 291 291 290 290 291 292 291 290 289 288 288 289 290 292 291 289 290 290 292 291 291 293 292 293 293 292 292 293 294 294 293 296 308 312
300 301 300 301 301 301 303 306 306 307 308 310 310 309 309 309 308 308 309 308 310 309 311 309 309 310 310 310 310 312 311 313 312 309 308 307 305 303 303 302 301 300 298 296 295 293 293 292 292 292 290 288 289 289 289 291 289 288 290 289 289 289 290 290 290 290 291 290 291 291 291 290 290 290 291 291 290 290 291 291 292 292 293 301 308
299 299 299 299 300 300 301 300 303 305 307 308 307 306 307 305 306 306 306 306 306 306 308 308 308 308 308 309 309 310 310 310 310 309 308 305 305 302 301 300 300 299 298 298 297 295 294 293 292 291 290 288 288 288 290 291 289 287 286 288 288 288 289 289 289 289 289 289 289 291 289 290 289 289 290 290 289 288 288 289 289 290 292 292 297
297 297 297 298 298 299 299 300 301 301 303 306 306 306 305 307 307 306 305 305 306 307 308 307 308 307 306 306 305 306 307 309 309 308 308 306 304 302 300 299 298 298 298 297 295 295 293 292 291 288 290 290 289 289 291 290 287 287 286 285 286 285 286 288 288 288 288 289 290 290 289 290 289 289 290 289 289 288 287 287 288 289 290 292 292
296 296 297 297 297 297 298 299 299 300 300 300 303 304 305 306 306 303 304 304 303 304 305 304 304 305 304 304 304 304 304 305 305 305 307 305 304 302 301 298 297 298 296 295 294 293 293 292 291 291 288 288 289 289 290 292 287 285 284 284 281 284 285 287 287 288 289 289 288 289 289 289 289 289 290 289 288 289 289 288 288 288 288 289 290
295 295 296 296 296 296 296 297 298 298 299 299 299 300 302 303 303 303 303 304 303 301 302 302 303 304 305 303 302 303 303 303 303 303 304 304 303 303 301 298 297 297 297 296 293 293 292 291 291 291 290 288 288 288 291 291 287 288 284 285 281 282 280 284 286 285 288 289 288 288 289 289 288 288 289 289 288 288 289 289 289 289 288 287 288
294 294 295 295 296 295 295 296 296 297 298 298 299 299 300 301 302 302 300 298 297 299 297 296 296 298 300 302 303 302 302 302 301 302 302 303 302 302 300 299 297 296 296 296 294 294 293 293 292 291 290 290 288 287 289 290 288 292 289 282 280 281 282 282 284 283 285 287 288 288 288 288 288 288 288 288 288 289 289 289 288 288 288 287 287
294 294 295 295 294 295 295 295 296 296 297 297 298 298 298 297 297 297 296 294 294 295 297 297 297 298 300 298 300 301 301 301 300 300 300 300 300 300 299 298 296 295 295 295 295 293 292 292 292 292 290 290 290 288 287 290 290 289 288 289 288 286 282 283 283 283 283 285 286 287 287 287 287 288 288 288 288 288 288 289 288 288 288 288 288
294 294 295 294 294 294 294 295 295 295 296 296 297 297 297 297 296 296 295 295 294 295 295 296 297 298 298 299 299 299 300 300 299 298 298 298 298 298 298 298 298 295 294 294 293 294 294 292 292 291 291 291 288 288 288 289 289 288 288 288 285 284 285 285 284 281 282 283 284 285 286 286 287 287 288 288 288 287 288 288 288 288 288 288 288
292 294 294 294 294 294 294 294 295 295 295 295 295 296 295 295 295 295 295 294 294 294 296 296 297 296 296 297 296 298 298 298 299 298 297 297 296 297 296 297 297 296 293 293 293 293 293 293 292 292 292 291 290 289 288 289 289 289 289 288 287 286 284 286 284 289 284 281 282 283 283 286 286 287 288 288 287 287 287 288 288 288 288 288 288
291 292 293 293 294 294 294 294 294 294 294 295 295 295 294 294 294 294 293 294 294 295 295 296 296 296 295 295 296 295 295 296 297 297 296 296 295 296 295 295 296 296 294 294 292 292 292 292 292 291 291 291 290 290 288 288 289 289 287 288 287 286 286 288 286 285 285 284 281 282 283 284 284 286 287 288 288 288 288 288 288 288 288 288 288
290 291 291 292 292 292 293 293 293 293 293 294 294 294 294 294 293 292 292 292 293 293 293 294 294 293 293 294 294 295 294 294 295 295 295 295 295 294 294 295 296 296 295 294 291 290 291 291 291 291 292 291 291 290 290 289 289 290 289 289 287 287 286 287 286 285 284 284 287 281 283 283 283 286 288 288 288 288 287 287 288 288 288 288 288
289 290 290 290 290 291 291 291 292 293 293 293 293 292 293 293 292 292 291 291 292 292 292 292 292 292 292 292 292 293 293 293 293 294 294 294 293 293 294 294 294 294 295 294 294 293 292 291 291 290 290 291 291 291 290 290 288 288 288 288 288 288 287 287 288 286 287 287 284 282 282 284 285 284 286 288 289 288 287 287 287 287 287 287 287
Wind_Speed
8 12 10 15 17 18 19 19 19 19 17 16 15 15 15 14 14 13 13 13 13 13 12 12 11 11 10 10 10 9 9 9 9 9 8 7 7 7 7 8 9 9 10 10 10 10 11 11 10 9 9 10 10 10 10 10 10 10 10 10 10 9 9 9 9 10 9 10 11 12 11 11 10 11 11 13 14 13 11 11 10 8 6 8 12
12 11 11 11 17 18 19 19 19 18 18 17 16 15 14 13 13 13 13 13 13 13 13 12 12 11 11 10 10 10 9 10 9 9 8 7 7 7 9 10 11 9 9 10 9 10 10 9 9 8 9 9 9 9 9 9 9 9 8 9 9 9 8 8 8 8 8 8 9 10 10 11 11 11 12 13 13 13 11 11 11 6 4 11 12
10 11 10 12 16 17 17 19 19 19 18 18 17 15 14 14 13 13 14 14 14 14 13 12 12 11 11 10 10 10 10 10 9 9 9 9 10 9 10 11 11 10 9 9 9 10 9 8 8 8 8 9 9 9 9 9 9 9 8 8 8 8 7 7 8 8 7 6 8 8 8 9 11 11 11 12 13 13 10 10 9 8 7 12 11
11 11 10 13 16 16 17 17 18 18 18 17 16 15 15 15 14 14 14 14 15 14 13 13 12 11 11 11 10 9 10 10 10 9 10 10 11 10 10 10 10 9 9 8 9 8 7 7 6 7 8 8 8 8 8 8 8 8 7 7 7 7 7 7 7 6 5 5 6 7 3 3 6 10 11 11 12 13 11 10 9 11 13 12 12
11 10 10 11 12 14 17 17 17 16 17 18 17 16 16 16 15 14 14 15 15 14 13 12 12 11 11 11 11 10 10 11 10 11 11 11 10 10 10 9 9 8 8 7 7 6 5 5 5 6 7 7 7 7 7 7 7 7 7 6 6 6 7 7 6 6 6 6 6 4 2 2 4 8 10 12 12 11 9 10 10 12 12 12 12
9 9 10 10 10 12 16 17 17 18 18 18 18 17 16 16 16 15 15 15 14 14 13 12 12 12 11 10 11 12 12 13 13 13 12 12 10 9 8 8 7 7 6 7 6 5 4 4 5 6 6 6 6 6 6 6 6 6 6 6 5 6 5 6 6 6 5 5 4 0 1 1 3 4 10 11 12 11 11 12 11 11 12 12 12
10 8 9 9 8 10 16 17 19 17 19 18 18 18 17 16 16 15 15 15 14 14 13 13 12 12 11 12 12 13 13 13 13 12 11 10 10 8 8 7 7 6 6 6 4 3 3 3 4 5 6 6 6 6 6 6 6 6 6 5 5 5 5 5 6 7 5 3 2 1 3 1 4 3 10 10 11 13 14 13 12 12 13 13 12
8 8 9 8 8 11 16 16 18 17 18 18 18 18 17 16 16 15 15 15 14 14 13 13 12 12 11 13 13 14 13 13 11 11 11 10 7 7 6 5 5 5 4 3 3 2 2 2 3 4 5 6 5 5 5 5 6 5 5 5 5 5 4 5 6 7 7 3 1 6 4 3 4 4 10 11 11 14 15 14 13 13 13 12 9
9 9 9 8 7 13 15 16 17 19 19 19 16 16 17 17 15 15 15 14 14 13 13 13 12 12 12 13 14 14 13 12 12 13 12 10 8 6 5 4 4 4 3 3 2 1 1 2 3 4 5 5 5 5 5 5 5 5 5 5 5 5 5 5 6 7 5 3 3 5 4 4 4 4 10 12 13 14 13 11 11 13 13 11 10
9 9 10 8 7 13 14 15 18 20 20 17 16 16 17 16 15 16 16 15 14 14 12 12 12 12 12 13 14 14 13 13 12 12 13 9 7 6 5 4 3 1 1 1 2 2 2 2 3 4 4 4 4 4 5 5 5 5 5 5 5 5 6 6 6 5 3 3 3 5 4 6 5 4 9 12 12 13 13 12 9 7 6 10 9
10 10 9 9 9 13 14 15 16 17 18 17 16 17 17 17 15 16 16 15 14 13 13 12 12 12 12 14 15 14 13 12 11 11 12 10 8 6 5 4 3 2 2 1 2 2 2 3 3 3 4 4 4 4 4 4 4 4 4 5 5 7 8 7 4 3 4 5 5 5 6 8 4 3 9 11 11 12 12 11 10 7 8 9 10
10 9 9 8 12 15 14 15 15 16 16 16 17 17 17 17 16 16 15 15 14 13 13 12 12 11 13 14 14 14 13 12 12 11 12 11 9 6 5 4 5 3 1 2 3 2 3 3 4 4 3 3 3 3 4 4 4 4 4 5 6 7 8 7 4 5 5 6 5 4 4 4 4 6 10 9 9 10 10 10 10 8 8 8 8
8 8 9 8 11 15 15 15 15 15 15 15 17 17 17 17 16 16 15 14 13 13 12 10 11 12 13 14 14 14 13 13 13 11 11 11 9 8 7 6 4 5 4 3 3 3 3 4 4 3 3 3 3 3 4 4 4 5 5 5 7 8 8 7 4 6 5 6 5 4 4 3 3 8 9 9 8 8 9 8 8 8 9 8 7
6 6 8 8 9 15 16 15 15 15 15 16 17 16 16 16 16 15 15 14 13 12 11 10 11 11 13 14 15 14 12 13 13 12 11 10 9 9 7 4 7 5 5 5 5 4 4 4 5 4 4 3 3 3 3 3 4 5 5 6 7 8 8 5 5 5 5 5 4 4 4 3 2 8 7 6 6 6 7 6 6 6 6 7 6
8 6 7 7 9 12 17 16 15 15 14 15 15 15 15 15 14 14 15 14 13 12 11 10 9 10 13 14 14 13 12 13 13 13 11 9 9 8 7 6 6 6 6 5 5 4 5 5 5 5 4 4 3 3 3 4 5 5 6 6 7 8 8 4 4 4 5 4 4 4 4 3 7 8 5 5 5 7 6 4 5 6 5 5 6
8 7 7 7 8 9 11 14 16 14 14 14 14 15 14 14 14 13 13 13 13 13 12 11 10 10 11 12 13 11 13 14 13 13 11 10 9 8 8 8 7 6 6 6 5 6 6 5 6 6 5 4 4 4 4 4 4 5 6 6 7 7 8 5 4 5 5 5 3 4 4 3 8 9 9 8 7 7 6 5 4 4 4 4 4
7 8 8 8 9 9 9 9 11 15 13 14 13 13 14 14 14 14 12 12 12 12 12 11 11 12 11 10 11 12 10 11 13 13 11 11 10 9 9 9 8 7 7 6 7 7 6 6 6 6 6 5 4 4 4 4 5 5 6 6 6 7 7 5 4 5 5 4 3 4 3 3 6 8 8 7 7 6 5 4 4 3 4 4 4
6 8 8 9 9 9 9 8 9 9 9 10 12 14 13 14 14 13 13 12 12 12 11 12 12 12 13 12 12 11 12 12 12 12 12 10 10 9 8 9 8 8 7 7 7 7 7 7 6 6 6 5 5 5 5 5 5 5 5 6 7 7 7 6 4 5 4 4 4 3 3 5 7 6 7 7 7 6 5 4 5 4 4 4 5
2 5 7 9 9 9 9 8 8 8 9 8 8 11 14 13 14 13 13 13 13 12 11 11 12 11 12 11 11 10 13 12 12 12 11 10 10 9 9 9 9 9 8 7 8 8 8 7 7 7 6 6 5 5 5 5 5 5 5 6 7 7 6 5 4 5 4 4 3 4 3 4 6 6 6 6 6 6 6 6 5 5 5 5 4
1 4 6 7 8 10 9 9 9 9 8 8 8 9 12 14 14 14 14 13 13 12 12 12 12 11 11 10 10 9 10 10 12 11 12 11 11 8 9 8 9 9 9 9 9 9 8 8 8 8 7 7 6 5 5 5 6 5 5 6 6 6 4 4 4 4 4 3 3 4 5 4 4 5 5 5 5 6 6 6 6 7 6 6 6
2 4 4 6 7 9 10 9 10 10 10 9 9 9 10 14 13 15 15 14 13 13 12 13 12 10 9 9 9 7 5 6 9 7 11 8 10 11 10 9 10 8 9 9 9 9 9 8 8 9 8 8 7 6 5 5 5 5 5 6 5 3 4 5 4 4 3 3 4 4 6 2 4 5 5 5 5 6 6 6 6 7 7 7 7
5 5 4 4 6 7 10 10 9 11 10 9 8 8 8 11 10 10 10 11 11 11 10 8 9 7 10 8 6 6 6 5 6 8 7 7 9 11 11 10 8 7 7 9 10 10 9 9 9 9 9 9 7 3 3 4 3 4 4 5 3 3 3 4 4 5 3 3 4 4 7 2 4 5 5 5 5 5 5 5 6 7 6 6 6
6 6 7 6 6 7 6 9 10 11 11 10 8 9 10 9 9 10 9 10 9 10 8 8 7 7 7 7 6 6 6 6 7 8 7 10 9 11 11 11 9 7 7 8 9 10 10 9 10 9 10 8 5 3 3 1 1 2 4 3 2 3 3 4 4 5 3 2 2 5 5 2 5 5 5 5 6 5 6 5 5 6 5 6 7
9 9 10 7 7 8 9 8 10 11 11 10 9 9 9 9 8 8 8 8 9 8 8 8 7 7 7 7 6 7 7 6 8 12 10 7 8 11 12 12 11 7 9 7 8 8 11 10 10 10 7 4 4 3 3 1 1 0 1 2 2 2 3 3 4 4 3 3 2 5 5 2 5 5 6 6 5 6 6 6 6 4 5 5 4
11 9 6 8 9 10 8 8 7 9 11 10 10 9 9 9 8 8 8 8 8 8 8 8 8 8 8 7 7 6 7 6 7 7 7 7 6 6 7 7 6 5 8 5 5 5 5 4 4 6 5 4 3 3 2 2 1 0 0 0 1 2 2 3 3 4 3 3 2 5 5 5 2 6 6 7 7 5 5 6 7 6 5 4 4
5 6 10 9 10 10 10 9 7 7 10 10 10 9 10 9 9 9 8 8 8 8 8 8 8 9 8 8 8 8 7 7 7 7 7 7 7 6 7 6 6 6 6 6 6 6 4 5 6 5 4 4 3 3 3 3 3 1 0 1 2 2 3 3 4 3 3 2 2 5 6 5 5 6 6 7 7 6 7 8 6 6 6 4 4
7 10 9 9 10 10 10 9 9 7 9 9 8 7 9 9 8 8 9 8 8 8 8 8 8 8 8 8 8 7 7 7 7 7 8 7 7 7 7 7 7 6 6 7 6 6 6 6 6 5 4 4 3 3 4 4 4 4 2 3 3 3 3 3 4 4 3 2 2 5 5 5 6 6 6 7 7 7 7 7 8 7 5 6 5
6 9 9 9 9 12 11 10 10 9 8 9 9 8 8 8 9 9 9 9 9 9 8 8 7 8 8 8 8 7 8 7 7 8 7 7 8 7 7 7 6 6 6 7 7 6 6 6 6 4 5 4 4 4 5 4 4 4 4 4 4 3 4 3 4 4 4 2 1 3 4 5 6 4 6 7 8 7 7 7 7 6 7 5 6
7 9 8 7 10 11 11 12 11 11 8 8 9 8 7 8 8 9 10 9 9 8 8 7 7 7 7 8 8 8 7 7 8 7 6 7 6 7 7 7 6 6 6 6 7 7 7 7 6 6 6 5 5 4 5 4 5 6 6 4 4 4 4 4 4 4 3 3 2 2 4 5 6 2 5 7 7 7 6 7 7 7 6 5 4
11 9 6 8 7 8 11 13 13 12 10 7 8 8 8 8 9 10 10 9 9 9 8 8 8 7 7 7 9 8 8 7 7 6 8 7 6 6 6 6 7 6 7 7 6 7 7 6 6 6 6 6 6 6 5 5 4 4 5 5 4 6 5 5 4 5 4 3 2 1 4 5 5 4 2 5 6 7 8 7 8 7 6 5 5
7 5 7 8 8 8 10 11 10 9 8 9 8 8 7 7 7 7 7 8 8 8 8 8 8 8 8 7 7 7 6 6 7 7 6 6 6 6 6 6 6 6 7 6 6 7 6 7 7 7 7 6 7 5 6 5 4 4 4 5 5 4 5 4 4 4 4 4 3 2 1 4 5 6 5 2 2 5 6 7 7 8 8 8 7
5 7 8 6 6 10 11 9 10 9 9 9 8 8 8 8 6 6 6 6 6 7 7 7 8 8 7 7 7 7 7 6 7 7 7 7 6 6 6 6 7 6 7 7 7 6 6 6 6 6 5 6 6 5 5 7 5 6 4 5 4 5 5 4 4 5 4 4 4 3 2 2 4 5 6 2 3 2 2 3 7 8 8 8 7
6 5 4 5 7 8 8 9 8 7 8 9 8 7 6 6 7 7 6 5 6 6 6 7 7 7 7 7 8 8 7 8 7 8 8 8 7 7 7 7 7 7 6 7 6 5 5 6 5 4 5 5 5 5 4 5 6 5 5 5 6 4 5 4 5 5 5 4 5 4 3 3 2 4 5 6 4 5 4 5 2 6 8 8 8
1 1 3 4 5 4 5 5 6 7 8 7 5 5 4 5 5 6 6 6 6 7 7 6 7 7 6 7 7 8 7 7 8 7 7 7 7 7 7 7 7 6 6 6 7 6 7 6 6 6 6 6 6 6 6 6 5 4 5 4 4 6 6 5 5 6 5 5 5 4 5 3 3 3 3 5 5 5 6 6 4 4 6 7 7
1 1 4 3 2 3 4 4 5 6 6 5 5 5 4 4 5 5 6 6 6 6 6 7 5 6 6 6 6 6 7 7 7 8 7 7 7 7 7 7 6 5 7 7 7 7 7 8 7 7 5 6 6 6 6 6 6 6 6 5 6 6 4 6 5 5 5 5 5 4 5 5 3 3 3 3 4 5 5 6 6 6 6 6 7
12 7 2 2 2 1 3 4 4 5 5 6 4 4 4 4 3 3 3 4 6 5 6 6 6 5 5 6 5 5 5 6 7 7 8 7 7 7 7 6 6 6 6 6 6 8 7 6 6 7 7 6 6 6 4 6 5 6 5 6 6 6 7 5 6 5 5 5 6 5 5 5 4 4 4 4 3 3 5 6 7 8 7 7 7
12 13 11 6 4 3 4 4 5 5 4 4 3 2 3 3 3 2 3 3 3 5 4 4 4 4 4 5 5 6 5 5 5 6 7 7 7 7 6 6 6 7 7 7 7 6 7 7 6 6 7 7 7 6 5 6 6 6 5 5 5 5 6 7 6 7 4 5 5 5 5 4 5 5 4 5 3 3 4 4 6 6 5 5 8
13 14 14 12 8 5 5 5 5 4 3 2 3 3 3 2 1 1 2 2 2 2 2 3 3 4 4 4 5 5 5 5 4 4 5 6 6 6 5 6 6 7 7 7 8 5 5 6 7 5 7 7 8 8 8 6 5 5 5 5 5 4 5 6 6 5 7 5 6 6 7 6 6 5 5 4 4 4 3 4 5 4 3 3 7
12 14 14 13 12 9 6 7 6 6 5 5 4 5 5 5 5 5 5 4 3 2 2 3 3 3 5 4 5 6 6 5 5 5 5 5 5 5 6 6 7 7 7 7 7 6 5 6 8 8 5 7 8 8 8 7 5 4 4 4 4 4 4 4 5 5 6 6 7 6 4 7 7 5 6 5 5 4 4 3 2 2 2 4 6
13 13 15 14 14 12 8 7 6 5 5 5 5 6 6 6 5 4 5 5 4 4 5 3 2 3 2 3 3 4 4 5 5 5 6 6 6 7 7 6 7 7 8 7 7 7 9 8 8 8 8 5 2 5 5 6 4 3 1 0 2 2 2 3 4 5 6 6 6 5 7 6 6 6 6 6 6 5 5 4 3 5 3 3 4
15 15 15 14 13 11 12 11 9 6 6 5 5 5 5 2 3 4 2 2 3 3 4 3 4 2 3 3 4 4 4 4 4 5 6 6 6 6 6 6 7 8 8 10 10 10 9 8 8 6 8 7 5 4 6 8 8 2 2 0 1 1 1 1 5 6 6 6 7 7 7 7 6 7 6 6 6 6 6 6 5 4 5 4 4
14 14 14 12 12 13 12 10 10 10 9 6 5 5 3 3 4 1 3 2 2 1 1 1 1 2 1 2 3 3 4 4 4 4 5 6 5 6 6 7 7 7 8 7 7 7 7 7 6 6 5 10 8 8 8 9 3 8 6 3 2 3 3 3 5 4 5 6 7 7 6 8 8 7 6 7 6 7 6 7 6 6 6 6 5
11 12 11 13 13 12 10 9 10 9 9 9 8 6 6 5 6 4 3 3 3 2 1 1 1 1 2 2 2 3 3 3 3 4 4 4 5 5 6 6 6 6 6 6 6 7 8 9 9 10 7 4 5 5 9 12 8 5 3 5 3 2 4 4 6 6 5 6 5 6 7 7 8 7 7 7 7 7 7 7 7 7 7 7 7
11 12 12 12 10 10 10 10 10 9 9 9 8 6 5 5 5 6 5 6 4 4 4 5 5 4 3 3 1 1 2 2 2 3 3 4 4 5 5 4 6 6 8 8 7 8 7 6 7 9 7 7 5 7 9 12 6 11 4 7 4 5 3 11 11 5 8 8 6 7 6 8 6 6 6 8 7 7 7 7 8 8 8 8 7
11 11 11 10 8 10 9 9 8 9 8 9 9 8 9 8 7 7 6 5 5 7 5 5 3 2 1 2 1 0 1 1 2 3 3 4 4 4 4 4 5 5 6 7 7 9 9 9 11 10 9 11 10 6 7 8 9 13 8 6 2 1 8 3 4 6 6 7 8 7 7 6 7 7 7 7 6 7 7 7 7 7 8 8 7
12 11 9 10 10 10 10 10 9 9 9 9 8 8 8 8 8 8 7 6 6 6 7 4 6 5 3 2 1 0 1 1 1 2 3 3 4 4 4 4 4 5 5 6 6 5 6 7 9 9 10 9 10 7 6 9 10 10 7 7 6 8 6 5 4 6 0 5 6 6 8 8 5 7 7 7 8 8 6 7 7 8 7 8 7
10 7 9 10 11 10 9 9 9 8 9 9 10 8 9 8 8 7 7 6 6 4 3 3 3 5 3 4 2 1 0 1 1 1 2 3 4 4 4 4 4 4 4 4 5 6 7 8 7 8 9 9 6 9 10 10 8 9 9 10 5 0 5 8 8 3 2 3 5 8 8 6 7 8 9 10 9 7 7 7 9 8 7 7 7
6 7 9 9 11 11 10 10 9 10 10 9 10 9 8 8 9 7 7 7 5 4 5 5 5 6 7 6 3 2 1 1 2 2 2 3 3 4 4 4 4 4 3 5 6 6 6 5 6 8 8 8 9 11 9 8 11 11 10 12 10 2 3 2 2 11 6 5 6 3 3 7 7 9 10 10 10 10 10 9 8 8 7 8 7
8 9 9 9 9 10 11 11 13 11 11 12 11 11 9 9 8 8 8 6 6 6 5 6 7 6 7 7 7 5 3 1 1 3 3 3 3 4 4 4 4 5 4 5 5 5 6 7 7 7 8 8 8 8 7 9 8 10 5 11 8 9 5 5 2 1 7 6 6 8 9 3 4 7 9 10 9 10 11 10 9 9 8 8 8
8 7 7 7 8 7 10 11 11 10 10 11 11 11 11 9 10 9 9 8 8 7 7 8 7 6 7 7 7 8 7 5 3 2 3 3 4 3 4 4 5 6 5 5 4 4 5 6 7 8 8 10 8 9 11 8 8 8 8 7 9 9 6 6 5 4 4 4 9 8 8 11 11 12 12 10 13 12 9 8 9 9 9 8 8
5 5 7 7 7 8 6 9 7 7 8 8 9 9 8 9 9 9 9 8 8 7 8 8 8 8 8 7 7 6 6 7 6 5 4 4 4 3 4 5 4 4 5 5 5 6 6 6 7 6 7 9 8 9 10 9 7 8 9 7 10 10 12 12 11 7 8 8 5 6 4 10 14 11 11 14 12 10 9 8 10 10 10 9 8
Wind_Direction
191 165 173 175 171 167 165 166 163 161 161 161 159 159 158 153 150 146 148 145 145 143 140 139 137 136 136 138 135 133 131 129 131 127 120 114 119 114 117 122 116 107 106 106 101 92 90 87 80 76 75 74 72 69 68 70 74 79 80 81 78 75 74 57 49 53 50 63 74 73 72 73 73 73 72 76 81 81 77 73 70 69 61 68 74
170 167 168 175 172 168 164 165 165 163 162 162 161 161 158 154 152 152 150 149 149 145 147 147 145 144 146 142 142 143 141 141 136 133 131 118 110 113 115 113 108 107 106 103 98 87 81 77 71 68 69 69 66 66 65 64 63 63 65 65 67 68 63 62 58 51 42 55 68 69 68 73 74 76 72 71 73 74 71 72 73 72 67 73 71
149 160 166 174 172 169 164 166 164 165 166 164 162 161 159 154 154 154 154 152 151 153 153 152 151 150 152 153 152 149 147 143 138 139 130 120 107 104 107 110 108 108 109 104 94 80 72 71 72 70 67 66 66 65 64 64 59 57 58 58 56 55 57 54 55 48 54 51 64 55 57 67 76 77 79 76 74 69 68 71 70 60 66 70 72
149 162 164 171 172 171 164 166 166 166 166 167 163 161 158 155 155 156 156 156 157 156 156 156 157 160 159 159 156 146 142 136 133 131 122 116 113 108 107 107 106 106 104 94 83 78 71 69 68 70 69 67 68 68 69 69 67 63 57 56 52 44 36 44 39 48 48 18 35 24 25 54 68 81 82 82 78 71 62 59 68 77 74 71 70
152 159 164 168 171 172 167 166 166 167 167 166 164 163 160 158 157 157 161 161 160 159 159 162 163 165 164 163 151 146 141 130 126 117 114 112 111 112 110 106 110 110 99 90 88 85 74 60 65 66 69 70 68 69 67 69 72 71 67 58 53 43 29 21 26 24 22 10 8 20 344 50 72 77 86 88 83 80 77 71 62 65 62 66 69
150 158 164 167 171 172 168 168 167 167 168 168 165 163 164 161 160 161 165 164 164 163 164 167 170 170 167 159 154 145 139 132 124 121 116 107 111 110 120 115 108 105 107 98 81 76 59 56 62 70 69 67 65 63 65 66 70 74 72 68 58 49 34 7 360 18 15 339 348 146 227 0 69 73 80 85 89 82 80 77 72 65 63 60 61
148 158 163 167 171 174 169 168 168 168 169 169 168 167 162 164 164 165 168 168 167 167 169 171 174 175 169 157 154 146 147 144 136 132 117 113 101 94 85 83 86 78 69 72 70 59 54 48 67 73 75 69 65 60 57 59 61 63 65 67 65 56 35 7 351 359 354 6 290 125 98 71 80 62 81 82 82 85 80 76 77 73 63 57 52
144 157 166 168 170 176 171 170 169 168 171 170 169 169 166 166 167 168 172 172 171 171 173 175 178 176 171 160 156 153 160 144 140 133 126 116 110 95 93 95 96 83 89 88 88 95 64 76 75 82 82 77 74 72 64 57 53 53 54 56 60 56 37 7 355 349 346 5 34 101 108 114 97 84 83 81 81 78 72 68 67 68 61 58 48
152 160 164 168 175 175 174 172 170 172 173 170 169 168 169 169 169 171 175 176 175 174 178 179 183 178 173 166 159 159 161 150 148 140 127 118 120 120 109 104 107 121 127 124 122 138 124 113 94 87 88 84 79 77 73 62 53 43 44 48 52 53 31 13 360 345 357 15 85 104 126 123 101 96 87 86 79 76 74 66 55 57 60 52 44
155 161 166 164 174 178 176 175 173 175 174 171 167 168 172 172 171 174 178 178 179 179 182 185 187 184 177 170 163 167 165 155 154 143 133 134 131 145 137 120 127 128 209 170 160 145 144 134 115 94 90 87 82 77 74 67 57 50 42 46 47 41 28 7 0 359 20 50 84 107 110 95 91 96 91 85 83 75 72 72 71 61 62 58 56
158 163 165 166 169 176 180 179 175 176 176 171 169 169 174 174 173 178 180 180 183 184 186 189 191 188 171 175 166 173 169 159 156 144 133 140 149 152 154 161 180 175 177 218 154 159 155 142 124 111 93 82 82 83 77 73 68 62 55 52 44 33 17 8 35 33 32 48 89 98 99 94 89 91 104 93 82 76 69 70 69 68 69 66 61
159 162 168 163 167 174 181 182 177 178 176 172 171 172 175 174 175 179 184 184 185 188 190 193 194 193 176 173 177 173 171 162 152 149 142 147 160 163 176 176 199 178 188 194 174 158 163 145 128 114 97 91 91 86 84 73 70 69 64 53 43 28 14 26 47 44 42 62 70 66 78 89 102 101 99 96 88 82 81 76 74 65 64 63 63
156 163 169 160 167 175 179 182 180 180 178 174 174 175 177 175 176 179 185 185 187 192 191 195 198 195 179 176 184 176 174 158 153 157 151 156 163 176 183 208 156 152 182 169 168 165 163 145 135 121 114 107 95 88 77 72 73 67 61 55 38 24 12 30 40 47 53 62 59 54 55 61 103 113 108 98 95 91 81 78 76 71 63 62 59
176 148 166 163 170 176 178 181 181 180 180 177 176 179 178 177 178 180 182 185 189 192 194 197 199 194 181 180 184 182 176 168 156 152 157 162 168 172 181 133 150 166 177 183 176 169 167 149 136 133 129 121 99 89 84 79 72 72 64 51 36 25 19 23 33 53 62 68 64 56 45 48 65 120 108 103 99 98 88 78 77 74 64 58 60
172 146 160 163 168 177 178 180 180 181 182 179 179 179 179 179 181 182 180 184 186 189 190 195 192 188 186 184 186 182 173 167 160 159 164 167 162 164 168 168 165 179 170 185 177 176 162 161 145 140 136 127 112 97 87 76 67 65 61 51 37 24 22 20 24 55 58 51 49 52 41 39 79 80 104 118 115 90 86 88 82 73 68 65 63
158 149 147 161 167 173 181 180 179 180 182 182 181 180 181 180 183 185 185 185 184 187 187 187 184 179 187 188 186 184 178 169 165 164 163 164 165 172 172 174 184 184 180 178 179 172 169 162 149 139 136 133 122 103 88 82 75 63 56 47 34 27 24 40 50 60 67 76 66 58 39 45 91 93 91 95 98 92 87 85 78 87 94 91 81
149 146 146 159 165 170 176 182 181 177 179 182 183 183 183 182 184 186 189 187 188 188 186 183 179 176 187 189 183 180 180 168 164 165 162 163 169 169 170 178 180 181 185 182 178 173 171 160 153 147 145 138 127 114 98 86 80 69 59 47 37 27 27 43 62 58 69 77 70 51 37 48 91 99 96 94 92 91 89 77 103 104 103 97 101
156 147 155 158 163 169 174 176 178 180 177 181 186 185 185 183 185 187 188 188 189 189 188 183 179 180 183 187 185 176 162 163 164 161 158 163 165 161 165 171 174 176 187 190 179 176 174 164 164 153 148 141 130 119 104 93 82 73 60 47 35 21 28 44 51 53 66 67 61 43 20 74 94 96 96 94 96 97 102 108 100 104 101 108 112
186 153 155 156 167 168 172 174 178 178 179 179 184 190 187 185 184 188 188 187 187 188 187 184 181 183 185 182 184 165 164 166 164 157 157 157 154 152 159 167 172 177 187 192 179 179 171 166 166 156 150 142 129 114 103 91 87 80 69 49 30 19 28 46 45 70 73 62 48 41 1 86 88 93 98 101 103 109 109 119 105 91 101 113 116
217 190 156 170 167 170 172 177 180 182 180 182 184 186 190 186 185 186 188 187 186 186 182 182 181 181 183 172 168 169 161 166 155 156 156 156 152 153 158 164 173 178 189 190 182 178 170 171 169 157 151 143 128 107 100 97 90 86 69 43 26 29 35 34 57 70 75 67 59 34 14 73 105 108 111 117 122 116 118 117 117 114 115 107 113
249 224 185 178 174 174 176 178 185 185 184 183 186 188 190 187 187 187 187 188 185 185 183 180 178 175 170 167 157 158 159 151 153 155 156 155 157 156 156 165 173 182 188 192 186 179 177 177 172 161 154 134 110 96 86 92 91 84 63 34 28 38 40 50 67 78 71 62 51 22 21 44 112 122 121 126 128 125 127 132 140 128 113 114 119
213 224 231 200 182 183 185 184 185 190 186 186 188 188 186 189 187 186 187 187 184 182 183 180 177 172 165 163 160 157 158 155 158 156 158 159 159 158 159 163 173 178 186 192 187 183 182 182 177 165 146 124 113 90 57 57 68 78 50 38 35 37 50 62 80 81 74 56 51 22 16 137 144 125 125 118 116 127 122 115 117 123 128 126 130
229 227 229 213 200 194 187 191 191 189 189 189 191 188 184 185 187 183 185 184 183 180 179 178 177 170 165 165 163 161 163 161 160 163 163 167 164 161 163 166 173 176 177 185 187 183 182 186 184 166 140 126 113 123 119 85 46 29 47 35 60 64 58 68 87 84 79 70 44 16 18 126 135 137 138 136 132 134 141 135 120 121 135 133 130
212 206 207 206 200 200 202 191 191 188 187 192 191 190 185 182 186 185 182 184 183 183 179 176 177 172 170 168 167 166 165 164 168 165 158 161 166 164 167 168 171 165 170 165 176 176 182 189 189 156 128 126 129 145 132 110 88 22 42 41 70 46 55 76 96 94 80 55 27 11 8 22 152 152 149 144 145 141 145 155 128 115 115 110 112
208 202 199 205 203 202 204 204 191 192 190 191 190 189 183 182 188 185 184 183 183 183 183 182 178 175 173 172 171 165 167 167 164 165 165 162 161 167 166 168 166 164 161 155 153 164 165 155 131 120 145 150 135 157 141 125 140 191 49 1 113 64 70 75 91 93 83 56 19 11 3 352 172 169 169 160 155 171 158 135 152 145 123 123 124
194 184 203 203 204 201 199 204 194 199 196 192 193 185 178 188 188 187 185 187 186 185 186 187 182 177 175 176 170 171 172 173 171 170 169 166 165 170 170 165 161 167 161 155 154 146 136 135 140 147 169 176 161 176 190 161 181 205 251 214 152 119 107 95 101 103 96 71 14 10 2 342 322 197 181 158 162 179 158 158 151 138 147 129 137
195 208 197 201 199 198 198 195 204 197 204 194 191 179 188 187 186 187 187 191 188 187 193 190 187 178 177 176 174 180 178 173 174 173 173 170 172 171 170 169 167 166 173 155 161 155 149 152 153 167 176 194 197 191 195 191 180 176 189 201 159 148 134 121 109 122 121 98 30 11 354 346 324 202 176 173 168 185 165 170 156 152 156 150 143
183 210 202 196 189 199 194 190 202 201 200 197 189 186 186 183 185 184 192 192 188 194 195 194 183 183 182 180 181 181 179 177 176 175 177 171 176 172 169 169 164 169 170 162 160 161 158 159 163 170 182 201 216 192 188 191 187 171 169 178 164 160 157 146 121 137 140 111 66 360 5 353 344 200 184 178 175 189 182 185 162 155 159 159 157
205 211 203 188 199 194 186 193 198 202 197 192 193 191 180 183 181 185 193 186 192 193 194 189 188 187 185 183 183 186 187 180 177 177 162 179 169 170 170 172 167 170 166 176 167 170 169 168 173 180 186 200 204 189 169 160 163 170 158 155 158 163 158 149 138 145 138 126 95 19 15 3 360 271 193 192 176 190 179 178 172 167 162 159 143
214 205 181 201 195 189 189 194 195 197 195 183 195 189 187 182 188 189 190 181 191 190 186 190 193 186 189 189 192 190 187 180 174 167 170 177 168 168 171 174 174 172 175 179 184 171 175 174 176 182 186 194 192 191 161 164 163 165 162 157 159 166 164 157 150 152 148 140 118 60 28 19 8 13 197 202 183 183 186 186 179 182 161 166 168
203 188 193 198 190 180 196 199 197 193 188 192 192 196 188 193 186 189 185 188 186 183 187 190 192 193 191 186 188 190 180 176 168 167 175 167 167 169 180 171 175 183 184 182 178 183 177 181 180 182 184 184 189 176 164 170 176 177 178 160 176 155 165 168 141 148 148 155 139 110 44 34 28 22 14 145 177 195 187 191 198 176 174 172 184
189 209 200 186 170 190 193 196 194 192 191 199 191 193 193 197 184 176 185 188 179 182 186 186 192 194 189 186 182 184 176 178 165 166 169 167 169 174 174 177 191 181 187 183 181 185 182 183 179 180 179 172 176 172 173 162 176 183 178 177 170 162 169 171 152 156 158 155 155 138 111 69 51 51 37 56 141 174 117 195 204 185 179 180 186
226 211 190 162 184 191 187 195 189 186 196 200 200 200 186 180 182 186 180 173 182 178 182 188 191 192 186 187 184 180 177 172 173 166 167 170 169 171 177 190 187 181 188 187 176 176 176 171 184 173 167 166 164 182 171 166 164 183 174 180 165 169 173 163 160 151 162 166 165 160 148 133 104 76 70 62 73 113 114 91 82 201 185 175 183
266 326 120 187 199 173 184 174 178 181 196 201 197 196 196 185 178 183 180 175 179 182 188 183 183 189 182 188 185 180 175 171 164 167 164 168 173 176 179 190 189 183 180 175 181 178 179 172 181 170 181 171 180 182 170 178 188 175 179 179 166 172 167 166 168 166 165 171 173 165 164 150 133 123 98 83 77 110 116 109 106 130 155 172 182
26 104 183 212 159 163 148 166 173 180 180 188 183 194 194 186 177 176 182 184 183 184 186 181 170 175 173 179 181 178 176 167 166 162 170 169 174 182 185 188 179 176 179 186 178 182 173 183 170 179 180 180 180 181 177 180 173 182 188 176 177 175 167 173 173 168 171 177 168 177 170 159 152 136 121 105 85 90 131 142 142 142 155 171 186
15 339 348 52 76 70 115 119 146 159 180 183 183 178 184 185 173 168 171 180 182 182 180 185 181 161 158 164 171 167 170 167 165 163 165 174 176 184 189 172 175 171 181 180 178 183 184 180 186 169 170 193 174 192 177 173 179 181 190 182 186 176 172 170 178 181 188 158 176 178 178 170 168 161 152 140 131 116 112 136 150 157 158 168 176
27 26 7 17 55 74 97 114 144 151 164 164 139 129 149 163 162 154 155 151 163 172 172 165 163 162 147 151 158 161 170 163 165 167 163 172 178 183 179 175 168 174 176 183 190 188 178 180 186 187 174 176 184 181 187 178 181 186 185 184 190 180 173 177 180 187 174 167 176 179 180 182 182 176 165 162 160 150 130 127 136 131 127 161 178
30 28 27 28 5 16 40 45 53 56 70 102 109 85 70 75 75 92 106 119 139 136 126 135 153 152 132 142 156 158 164 156 153 160 164 172 176 177 174 177 173 177 180 180 196 176 182 173 186 199 183 168 185 181 190 184 174 177 188 189 193 184 185 185 187 183 173 179 182 181 189 183 183 183 176 175 172 171 161 146 141 133 144 167 184
30 29 32 25 26 10 25 44 39 45 50 63 67 75 66 59 54 40 41 32 33 46 73 93 136 134 141 149 154 157 161 158 153 154 160 164 168 175 178 186 180 182 181 186 186 177 177 187 186 198 206 198 185 189 180 165 165 168 178 199 185 199 205 203 189 179 187 186 185 193 169 182 186 180 179 180 179 175 174 170 143 161 179 189 193
28 28 29 30 25 22 9 21 29 43 55 52 54 56 58 52 46 20 36 19 21 31 29 56 63 88 110 123 142 156 164 168 167 163 168 171 180 186 187 185 184 177 184 188 192 186 190 189 202 188 196 217 212 171 142 136 99 97 111 135 210 228 234 218 198 198 197 188 189 179 185 191 182 177 178 182 179 181 180 182 182 191 203 207 203
28 24 29 27 27 27 31 18 351 16 52 55 46 57 57 30 47 54 69 9 45 28 34 17 49 86 135 126 140 151 168 177 182 172 184 184 195 187 186 190 186 188 193 200 193 196 195 190 187 188 185 194 213 184 176 145 134 84 19 33 297 319 305 222 211 212 206 194 194 191 191 175 193 190 186 177 181 182 183 184 186 188 199 208 209
21 23 26 25 28 30 34 25 23 22 16 33 57 57 67 118 116 108 114 65 43 47 18 348 55 62 96 124 129 157 171 185 193 191 194 191 193 193 196 196 186 200 205 200 194 194 189 190 169 195 207 190 205 186 179 132 177 178 158 223 306 315 294 297 261 246 225 217 209 199 185 189 197 200 186 172 184 185 186 185 182 185 192 196 203
31 29 21 27 26 29 27 28 26 29 30 19 34 40 44 40 64 41 52 57 38 39 61 343 10 48 41 53 110 135 154 189 199 199 203 206 206 202 208 196 195 193 194 207 199 201 200 193 185 192 201 231 216 196 184 191 173 147 116 96 233 215 296 283 260 238 235 228 220 213 201 199 202 195 191 182 185 191 191 185 185 186 188 192 195
35 31 26 25 26 25 24 26 25 29 29 28 33 34 64 85 70 75 51 79 80 24 34 28 24 23 358 11 30 110 154 186 204 210 222 222 215 216 216 202 209 196 196 199 199 209 202 202 200 208 184 196 211 216 206 200 148 143 189 199 194 150 263 243 223 233 209 221 205 216 206 209 198 200 191 197 196 193 197 190 188 188 190 191 192
37 36 32 27 26 23 20 23 27 28 28 28 33 38 35 30 23 26 35 18 4 19 18 350 358 12 345 329 276 79 148 193 207 226 224 235 237 239 230 222 214 210 205 208 205 210 205 203 202 203 196 200 212 214 220 218 209 201 159 105 46 275 221 239 155 249 196 217 226 213 214 210 203 200 200 211 202 204 196 197 194 191 193 191 191
34 29 31 31 27 23 21 20 26 25 24 25 29 43 51 54 45 44 34 26 12 8 10 340 330 320 282 300 325 351 146 187 230 245 245 253 253 246 244 235 229 220 213 219 217 215 216 212 210 207 210 217 212 202 217 231 229 232 232 219 163 182 176 215 125 253 338 236 229 216 217 216 203 202 211 211 208 210 202 200 202 201 196 196 193
26 23 34 33 29 27 23 26 27 24 19 23 28 36 46 48 57 61 60 51 32 355 325 328 335 315 284 280 291 346 26 204 271 258 272 263 262 264 251 244 240 231 223 223 228 221 219 216 211 213 216 216 211 214 212 214 233 255 251 255 290 115 154 129 212 78 273 265 225 222 229 214 209 207 210 214 209 200 209 204 204 202 201 195 191
18 23 36 35 33 27 25 24 27 27 23 20 29 30 46 44 46 47 51 44 39 5 349 345 2 7 16 353 319 279 283 211 237 262 256 262 263 275 266 260 259 250 219 219 226 229 228 231 221 222 222 218 215 222 218 211 204 227 224 244 250 246 251 301 145 187 176 176 236 258 270 222 218 219 214 212 206 204 203 208 203 201 200 201 194
25 29 33 33 32 29 30 28 30 27 21 22 25 26 36 42 46 41 38 25 22 11 353 12 16 6 24 7 10 335 326 307 244 243 256 252 251 251 271 275 269 266 237 235 237 234 228 226 225 225 223 227 224 230 227 224 220 230 210 243 251 250 255 253 278 234 179 193 246 194 211 220 241 240 230 217 211 209 205 202 200 199 200 202 199
16 18 25 36 39 37 37 36 33 27 22 26 27 27 27 32 41 36 36 20 14 8 16 12 10 7 18 14 7 8 352 330 315 292 270 258 252 249 254 258 259 262 264 248 248 248 245 240 233 228 226 228 226 225 228 230 226 234 221 228 225 240 255 266 260 229 285 235 224 201 201 184 204 227 217 214 213 210 203 195 197 202 204 204 201
35 33 32 33 40 40 39 48 39 33 30 34 37 37 32 34 39 36 34 25 12 14 15 10 6 10 10 2 7 357 10 0 342 325 316 301 289 268 248 250 256 265 269 270 254 241 242 239 241 238 235 231 230 231 236 237 231 234 235 227 232 221 221 223 220 206 207 221 237 233 202 206 205 216 220 214 213 208 200 194 198 203 203 203 201